Regional Weather Roundup
Issued by NWS

Home | Current Version | Previous Version | Graphics & Text | Print | Product List | Glossary On
Versions: 1 2 3 4 5 6 7 8 9 10 11 12 13 14 15 16 17 18 19 20 21 22 23 24 25 26 27 28 29 30 31 32 33 34 35 36 37 38 39 40 41 42 43 44 45 46 47 48 49 50
000
ASUS44 KMEG 271810
RWRTN
TENNESSEE HOURLY STATE WEATHER ROUNDUP
NATIONAL WEATHER SERVICE MEMPHIS TN
100 PM CDT MON APR 27 2015

TNZ002-004-019-021-049-052-054-088>092-271900-
WEST TENNESSEE

CITY           SKY/WX    TMP DP  RH WIND       PRES   REMARKS
MEMPHIS INTL   CLOUDY    61  42  49 NE15      29.98F
NWS MEMPHIS      N/A     59 N/A N/A MISG        N/A
JACKSON        CLOUDY    61  43  51 N14       30.00F
DYERSBURG      CLOUDY    61  32  33 NE16      30.02F
UNION CITY     SUNNY     59  32  36 NE14      30.02S
PARIS          SUNNY     61  37  41 NE13      30.01F
LEXINGTON      SUNNY     61  36  39 NE8       29.98F
SAVANNAH       SUNNY     61  32  33 N12       29.97F
$$

TNZ008-025-027-028-033-062-065-066-271900-
NORTH MIDDLE TENNESSEE

CITY           SKY/WX    TMP DP  RH WIND       PRES   REMARKS
NASHVILLE      MOSUNNY   65  37  35 N12G17    29.99F
CLARKSVILLE    MOSUNNY   63  36  36 N14       30.00F
SMYRNA         SUNNY     64  37  36 N9        29.99F
COOKEVILLE     SUNNY     61  37  41 N10       29.95F
CROSSVILLE     SUNNY     59  32  36 NE10      29.95F
$$

TNZ061-075-076-078-094-096-097-271900-
SOUTH MIDDLE TENNESSEE

CITY           SKY/WX    TMP DP  RH WIND       PRES   REMARKS
FAYETTEVILLE     N/A     61  39  44 NE10      29.96S
TULLAHOMA      SUNNY     61  34  36 E3        29.96F
WINCHESTER     SUNNY     61  39  44 N12       29.95F
MCMINNVILLE    SUNNY     61  39  44 NE12      29.96S
COLUMBIA       SUNNY     63  32  31 N6        29.97S
SHELBYVILLE    SUNNY     63  41  45 N8        29.98S
$$

TNZ017-018-042-046-047-271900-
NORTHEAST TENNESSEE

CITY           SKY/WX    TMP DP  RH WIND       PRES   REMARKS
TRI CITIES     MOSUNNY   60  32  34 N10       29.91F
ELIZABETHTON   PTCLDY    57  34  41 NW12      29.91F
$$

TNZ012-013-036-069-073-074-271900-
CENTRAL EAST TENNESSEE

CITY           SKY/WX    TMP DP  RH WIND       PRES   REMARKS
KNOXVILLE      MOSUNNY   62  33  33 N8        29.92F
OAK RIDGE      SUNNY     64  34  32 MISG      29.93F
GATLINBURG     CLEAR     61  34  36 VRB5      29.92F
MORRISTOWN     CLEAR     59  36  41 N9        29.93F
$$

TNZ083-085-099-271900-
SOUTHEAST TENNESSEE

CITY           SKY/WX    TMP DP  RH WIND       PRES   REMARKS
CHATTANOOGA    MOSUNNY   66  38  35 NE12G24   29.91F
$$

SKY/WX REPORTED AS FAIR MEANS FEW OR NO CLOUDS BELOW
12 THOUSAND FEET.




USA.gov is the U.S. government's official web portal to all federal, state and local government web resources and services.